Погода в Шовском

Россия / Липецкая область     53°02′30″N   39°25′04″E
темп.,
°C
ветер,
м/с
пор.,
м/с
влажн.,
%
обл.,
%
осадки,
мм/ч
давл.,
гПа
погр.,
м
30 ноября, вт
вт3000:00+11ююв132390100 4.8 9841291
03:00+11ююз111985100 6.8 9801304
06:00+9юз111781100 0.3 9831187
09:00+6зюз121863100 0.3 9851340
12:00+4юз12196481 0.0 9871495
15:00+3юз122163100 0.0 9871672
18:00+2юз13206899 0.1 9891595
21:00+1зюз10176985 0.1 9901200
1 декабря, ср
ср100:00−1з71373100 0.0 992763
03:00−1зюз61074100 0.0 993767
06:00−2зюз51074100 0.0 993842
09:00−2зюз597022 0.0 994885
12:000з7105886 0.0 9951232
15:00−1зюз6106898 0.0 9951199
18:00−1зюз61082100 0.0 996845
21:00−1зюз61291100 0.5 997778
2 декабря, чт
чт200:00−2з6107234 0.3 999790
03:00−3з597461 0.3 1001875
06:00−4з5874100 0.0 1004603
09:00−4зюз497623 0.0 1006580
12:00−2юз5867100 0.0 1006546
15:00−2ююз71374100 0.0 1005673
18:00−1ююз81696100 1.3 1004674
21:00+1юз71691100 1.7 1004671
3 декабря, пт
пт300:00+1юз71498100 0.4 1005524
03:00+2юз61494100 0.4 1006455
06:00+2ююз51195100 0.0 1007331
09:00+2ююз41095100 0.0 1009294
12:00+2ююз51092100 0.0 1009331
15:00+3ю51296100 0.0 1008480
18:00+4ю71595100 0.0 1007634
21:00+5ю81790100 0.0 1006609
4 декабря, сб
сб400:00+6ююз91889100 0.0 1004745
03:00+6ююз91889100 0.3 1003849
06:00+2з61196100 0.9 1007575
09:00+1зсз4884100 0.9 1010532
12:00+1зсз3476100 0.0 1012451
15:00+1зсз2272100 0.0 1013413
18:000св1178100 0.0 101310
21:000св1179100 0.0 101313